Location: Hochstatterhof
(48.7256°N, 10.3487°E)
Time: 21:59:25
(UTC+00:00)

Resurs 1-4 Rocket - Pass Details

Date: 26 September 2023
Orbit: 800 x 812 km, 98.7° (Epoch: 08 December)

Event Time Altitude Azimuth Distance (km) Brightness Sun altitude
Rises 03:18:42 0° 360° (N) 3,322 5.6 -18.8°
Reaches altitude 10° 03:22:36 10° 331° (NNW) 2,387 4.5 -18.2°
Maximum altitude 03:24:29 12° 310° (NW) 2,246 4.1 -17.9°
Enters shadow 03:24:47 12° 306° (NW) 2,249 4.1 -17.9°
